Content
SEND FEEDBACK

Daily
Averages
Monthly
Summary
United States of America

BUCKEYE, ARIZONA


Home > North America > United States > Arizona
Elevation: 889 feet     Latitude: 33 22N     Longitude: 112 34W

WEATHER
 
SELECT A DAY
Number of Records: 111,631;   Date Range: 9/1/09 - 7/25/14
 
SHARE

PRINT THIS DATA

[ ← Previous Day ]
WEATHER ALMANAC - JANUARY 31, 2013
[ Next Day → ]
[ °C ]   °F
Weather ElementAverageHighLow
Temperature48.9 °F64.4 °F (3:55 pm)35.6 °F (6:55 am)
Dewpoint40.3 °F48.2 °F (10:15 pm)35.6 °F (6:55 am)
Humidity77.2 %100 % (12:35 am)37 % (1:55 pm)
Barometer30.19 in30.26 in (12:35 am)30.11 in (4:35 pm)
Wind Speed3.8 mph9.2 mph (11:55 pm)
Weather ElementAverage
Visibility9.8 mi
Wind DirectionS (181.4 °)

Weather ElementTotal
Precipitation---
Heating Degree Days15 (Base 65)
Averaged from 69 records on January 31, 2013
WEATHER CONDITIONS BREAKOUT
WIND DIRECTION BREAKOUT
WEATHER BY HOUR - JANUARY 31, 2013
[ °C ]   °F
Local TimeTemperatureDewpointHumidityBarometerVisibilityWind DirectionWind SpeedGust SpeedPrecipitationEventsConditions
12:35 AM41.0 °F41.0 °F100 %30.26 in10.0 miNorth (350°)6.9 mphClear
12:55 AM41.0 °F41.0 °F100 %30.26 in10.0 miNorth (360°)8.1 mphClear
1:15 AM41.0 °F41.0 °F100 %30.26 in10.0 miNNE (30°)6.9 mphClear
1:35 AM41.0 °F41.0 °F100 %30.26 in10.0 miNE (50°)4.6 mphClear
1:55 AM41.0 °F39.2 °F93 %30.26 in10.0 miEast (80°)5.8 mphClear
2:15 AM39.2 °F39.2 °F100 %30.26 in10.0 miENE (70°)4.6 mphClear
2:35 AM39.2 °F39.2 °F100 %30.26 in10.0 miNorth (10°)3.5 mphClear
2:55 AM39.2 °F39.2 °F100 %30.25 in10.0 miNNW (330°)5.8 mphClear
3:15 AM39.2 °F39.2 °F100 %30.25 in10.0 miNNW (340°)4.6 mphClear
3:35 AM39.2 °F39.2 °F100 %30.24 in10.0 miNNW (330°)4.6 mphClear
3:55 AM39.2 °F39.2 °F100 %30.24 in10.0 miNNW (340°)4.6 mphClear
4:15 AM39.2 °F39.2 °F100 %30.23 in10.0 miNNW (340°)4.6 mphClear
4:35 AM37.4 °F37.4 °F100 %30.23 in6.0 miNNW (340°)3.5 mphClear
4:55 AM37.4 °F37.4 °F100 %30.23 in10.0 miNorth (10°)4.6 mphClear
5:15 AM37.4 °F37.4 °F100 %30.23 in10.0 miNorth (350°)5.8 mphClear
5:35 AM37.4 °F37.4 °F100 %30.23 in10.0 miNNW (330°)6.9 mphClear
5:55 AM37.4 °F37.4 °F100 %30.23 in10.0 miNNW (330°)3.5 mphClear
6:15 AM37.4 °F37.4 °F100 %30.23 in10.0 miCalmClear
6:35 AM37.4 °F37.4 °F100 %30.22 in10.0 miNNW (330°)3.5 mphClear
6:55 AM35.6 °F35.6 °F100 %30.22 in8.0 miNNW (340°)5.8 mphClear
7:15 AM35.6 °F35.6 °F100 %30.23 in10.0 miNW (320°)6.9 mphClear
7:35 AM35.6 °F35.6 °F100 %30.23 in10.0 miNNW (330°)5.8 mphClear
7:55 AM37.4 °F37.4 °F100 %30.23 in10.0 miNNW (340°)3.5 mphClear
8:15 AM37.4 °F37.4 °F100 %30.23 in10.0 miCalmClear
8:35 AM39.2 °F39.2 °F100 %30.23 in10.0 miCalmClear
8:55 AM41.0 °F41.0 °F100 %30.22 in10.0 miCalmClear
9:15 AM44.6 °F39.2 °F81 %30.23 in10.0 miCalmClear
9:35 AM44.6 °F44.6 °F100 %30.24 in9.0 miSW (220°)3.5 mphClear
9:55 AM44.6 °F44.6 °F100 %30.24 in10.0 miSSW (200°)3.5 mphClear
10:15 AM46.4 °F44.6 °F93 %30.25 in10.0 miSSW (210°)3.5 mphClear
10:35 AM48.2 °F41.0 °F76 %30.26 in10.0 miCalmClear
10:55 AM50.0 °F39.2 °F66 %30.26 in10.0 miCalmClear
11:15 AM51.8 °F39.2 °F62 %30.26 in10.0 miCalmClear
11:35 AM53.6 °F39.2 °F58 %30.25 in10.0 miCalmClear
11:55 AM55.4 °F41.0 °F58 %30.23 in10.0 miCalmClear
12:15 PM57.2 °F37.4 °F48 %30.23 in10.0 miNorth (10°)3.5 mphClear
12:35 PM57.2 °F37.4 °F48 %30.21 in10.0 miCalmClear
12:55 PM59.0 °F37.4 °F45 %30.20 in10.0 miWest (280°)3.5 mphClear
1:15 PM59.0 °F35.6 °F42 %30.19 in9.0 miNNW (340°)3.5 mphClear
1:35 PM60.8 °F37.4 °F42 %30.18 in10.0 miCalmClear
1:55 PM62.6 °F35.6 °F37 %30.16 in5.0 miCalmClear
2:15 PM62.6 °F37.4 °F39 %30.16 in10.0 miSSW (210°)4.6 mphClear
2:35 PM62.6 °F37.4 °F39 %30.16 in10.0 miSouth (170°)3.5 mphClear
2:55 PM62.6 °F39.2 °F42 %30.15 in10.0 miSouth (190°)4.6 mphClear
3:15 PM62.6 °F39.2 °F42 %30.15 in10.0 miSouth (190°)4.6 mphClear
3:55 PM64.4 °F37.4 °F37 %30.13 in10.0 miSouth (180°)4.6 mphClear
4:15 PM64.4 °F37.4 °F37 %30.12 in10.0 miSSW (210°)3.5 mphClear
4:35 PM64.4 °F37.4 °F37 %30.11 in10.0 miSW (230°)3.5 mphClear
4:55 PM64.4 °F37.4 °F37 %30.11 in10.0 miSW (220°)3.5 mphClear
5:15 PM64.4 °F39.2 °F40 %30.11 in10.0 miSW (230°)5.8 mphClear
5:35 PM62.6 °F41.0 °F45 %30.11 in10.0 miSW (230°)4.6 mphClear
5:55 PM59.0 °F41.0 °F51 %30.12 in10.0 miSW (220°)4.6 mphClear
6:15 PM59.0 °F44.6 °F59 %30.12 in10.0 miCalmClear
6:35 PM59.0 °F41.0 °F51 %30.12 in10.0 miCalmClear
6:55 PM55.4 °F44.6 °F67 %30.13 in10.0 miNE (50°)3.5 mphClear
7:15 PM55.4 °F42.8 °F63 %30.14 in10.0 miNE (40°)3.5 mphClear
7:35 PM53.6 °F44.6 °F72 %30.13 in10.0 miNorth (10°)3.5 mphClear
7:55 PM53.6 °F44.6 °F72 %30.13 in10.0 miNorth (360°)4.6 mphClear
8:15 PM51.8 °F44.6 °F76 %30.13 in10.0 miNorth (350°)4.6 mphClear
8:35 PM50.0 °F44.6 °F82 %30.13 in10.0 miNorth (350°)3.5 mphClear
8:55 PM50.0 °F46.4 °F87 %30.13 in10.0 miNorth (350°)4.6 mphClear
9:15 PM50.0 °F46.4 °F87 %30.13 in10.0 miNNW (340°)5.8 mphClear
9:35 PM48.2 °F46.4 °F93 %30.12 in10.0 miNNW (340°)6.9 mphClear
9:55 PM48.2 °F46.4 °F93 %30.12 in10.0 miNNW (340°)8.1 mphClear
10:15 PM48.2 °F48.2 °F100 %30.13 in10.0 miNorth (350°)8.1 mphClear
10:35 PM48.2 °F46.4 °F93 %30.13 in10.0 miNorth (350°)8.1 mphClear
10:55 PM50.0 °F44.6 °F82 %30.14 in10.0 miEast (90°)4.6 mphClear
11:15 PM48.2 °F44.6 °F87 %30.15 in10.0 miCalmClear
11:55 PM50.0 °F41.0 °F71 %30.15 in10.0 miNorth (10°)9.2 mphClear
Hourly data recorded from KBXK, located miles away from Buckeye, Arizona







STORIES FROM OUR PARTNERS